CW3306 Weather Reports


Display with metric or nautical units.
time (UTC)temp
F
wind
direction
speed
MPH
gust
MPH
rain 1hr
in
rain 24hr
in
rain mn
in
humidity
%
barometer
mb
20260503214816 64 306 1.0 7.0 0.00 0.00 0.00 44 1017.4
20260503214327 64 225 2.0 4.0 0.00 0.00 0.00 43 1017.5
20260503213822 64 271 1.0 7.0 0.00 0.00 0.00 44 1017.6
20260503213318 65 269 1.0 4.0 0.00 0.00 0.00 39 1017.5
20260503212813 64 219 2.0 4.0 0.00 0.00 0.00 38 1017.6
20260503212349 64 277 1.0 5.0 0.00 0.00 0.00 37 1017.6
20260503211819 65 232 2.0 5.0 0.00 0.00 0.00 37 1017.7
20260503211314 65 258 1.0 8.0 0.00 0.00 0.00 39 1017.8
20260503210830 65 263 3.0 9.0 0.00 0.00 0.00 37 1017.6
20260503210313 66 274 1.0 9.0 0.00 0.00 0.00 38 1017.7
20260503205828 66 277 2.0 5.0 0.00 0.00 0.00 40 1017.7
20260503205323 66 230 2.0 9.0 0.00 0.00 0.00 40 1017.6
20260503204820 66 186 3.0 9.0 0.00 0.00 0.00 43 1017.7
20260503204316 66 197 2.0 7.0 0.00 0.00 0.00 41 1017.8
20260503203831 66 269 2.0 7.0 0.00 0.00 0.00 40 1017.8
20260503203343 66 278 2.0 7.0 0.00 0.00 0.00 38 1017.9
20260503202837 67 206 2.0 7.0 0.00 0.00 0.00 39 1018.0
20260503202321 66 250 3.0 5.0 0.00 0.00 0.00 39 1018.1
20260503201813 67 81 2.0 5.0 0.00 0.00 0.00 43 1018.1
20260503201329 66 234 1.0 6.0 0.00 0.00 0.00 40 1018.2
20260503200818 66 327 2.0 8.0 0.00 0.00 0.00 41 1018.4
20260503200351 66 221 2.0 8.0 0.00 0.00 0.00 41 1018.4
20260503195823 66 144 2.0 8.0 0.00 0.00 0.00 41 1018.6
20260503195319 66 170 3.0 8.0 0.00 0.00 0.00 41 1018.7
20260503194814 66 273 3.0 8.0 0.00 0.00 0.00 42 1018.8
20260503194329 65 185 3.0 6.0 0.00 0.00 0.00 42 1018.9
20260503193822 66 231 2.0 6.0 0.00 0.00 0.00 44 1018.9
20260503193317 65 306 3.0 6.0 0.00 0.00 0.00 44 1019.0
20260503192825 65 309 2.0 5.0 0.00 0.00 0.00 42 1019.3
20260503192320 64 229 2.0 5.0 0.00 0.00 0.00 43 1019.4
20260503191818 64 242 2.0 5.0 0.00 0.00 0.00 43 1019.3
20260503191314 64 255 2.0 5.0 0.00 0.00 0.00 43 1019.5
20260503190829 65 209 2.0 8.0 0.00 0.00 0.00 45 1019.4
20260503190345 64 183 1.0 8.0 0.00 0.00 0.00 47 1019.4
20260503185819 64 256 2.0 8.0 0.00 0.00 0.00 44 1019.5
20260503185314 64 225 3.0 8.0 0.00 0.00 0.00 43 1019.6
20260503184829 65 186 2.0 7.0 0.00 0.00 0.00 43 1019.6
20260503183818 65 234 2.0 8.0 0.00 0.00 0.00 44 1019.8
20260503183312 64 115 4.0 8.0 0.00 0.00 0.00 43 1019.7
20260503182828 64 85 2.0 9.0 0.00 0.00 0.00 44 1019.9
20260503182342 64 172 2.0 9.0 0.00 0.00 0.00 47 1019.9
20260503181816 64 288 1.0 7.0 0.00 0.00 0.00 48 1019.9
20260503181331 64 194 2.0 7.0 0.00 0.00 0.00 46 1020.0
20260503180827 64 190 2.0 11.0 0.00 0.00 0.00 48 1020.1
20260503180321 64 59 3.0 11.0 0.00 0.00 0.00 47 1020.1
20260503175821 64 360 1.0 6.0 0.00 0.00 0.00 44 1020.2
20260503175312 63 101 2.0 5.0 0.00 0.00 0.00 47 1020.2
20260503174847 63 200 3.0 9.0 0.00 0.00 0.00 44 1020.3
20260503174322 63 176 3.0 9.0 0.00 0.01 0.00 48 1020.4
20260503173818 63 342 3.0 7.0 0.00 0.01 0.00 46 1020.4
20260503173312 63 275 2.0 6.0 0.00 0.01 0.00 49 1020.5
20260503172827 63 158 1.0 7.0 0.00 0.01 0.00 45 1020.6
20260503172321 62 69 2.0 9.0 0.00 0.01 0.00 45 1020.7
20260503171819 62 205 4.0 9.0 0.00 0.01 0.00 44 1020.9
20260503171316 62 150 2.0 7.0 0.00 0.01 0.00 49 1020.9
20260503170826 61 102 2.0 6.0 0.00 0.01 0.00 49 1020.8
20260503170321 60 71 1.0 4.0 0.00 0.01 0.00 51 1020.9
20260503150838 55 306 1.0 3.0 0.00 0.01 0.00 54 1021.7
20260503150313 55 180 2.0 8.0 0.00 0.01 0.00 57 1021.7
20260503131331 45 298 0.0 1.0 0.00 0.01 0.00 90 1021.9
20260503130847 44 160 0.0 1.0 0.00 0.01 0.00 91 1021.9
20260503130326 43 160 0.0 2.0 0.00 0.01 0.00 95 1021.9
20260503110312 33 260 0.0 0.0 0.00 0.01 0.00 96 1020.7
20260503090330 35 260 0.0 0.0 0.00 0.01 0.00 96 1019.8
20260503081330 37 260 0.0 0.0 0.00 0.01 0.00 96 1019.6
20260503080825 37 260 0.0 0.0 0.00 0.01 0.00 96 1019.5
20260503080347 37 260 0.0 0.0 0.00 0.01 0.00 96 1019.5
20260503072818 38 260 0.0 0.0 0.00 0.01 0.00 95 1019.3
20260503072340 38 260 0.0 1.0 0.00 0.01 0.00 95 1019.1
20260503071815 38 260 0.0 1.0 0.00 0.01 0.00 95 1019.2
20260503071311 38 260 0.0 0.0 0.00 0.01 0.00 95 1019.1
20260503070827 39 260 0.0 0.0 0.00 0.01 0.00 95 1019.1
20260503070344 39 260 0.0 0.0 0.00 0.01 0.00 95 1019.1
20260503060322 40 228 0.0 1.0 0.00 0.01 0.00 94 1019.1
20260503054829 41 228 0.0 0.0 0.00 0.01 0.00 94 1018.9
20260503054325 41 228 0.0 0.0 0.00 0.01 0.01 94 1018.9
20260503053822 41 228 0.0 0.0 0.00 0.01 0.01 94 1018.9
20260503053318 42 228 0.0 0.0 0.00 0.01 0.01 93 1018.9
20260503052814 42 228 0.0 0.0 0.00 0.01 0.01 93 1018.8
20260503052314 42 228 0.0 0.0 0.00 0.01 0.01 93 1018.8
20260503051850 42 228 0.0 1.0 0.00 0.01 0.01 93 1018.8
20260503051325 43 228 0.0 1.0 0.00 0.01 0.01 93 1018.7
20260503050820 43 228 0.0 1.0 0.00 0.01 0.01 93 1018.7
20260503050336 43 228 0.0 1.0 0.00 0.01 0.01 92 1018.6
20260503045832 43 230 0.0 1.0 0.00 0.01 0.01 92 1018.7
20260503045326 44 230 0.0 1.0 0.00 0.01 0.01 92 1018.7
20260503044822 44 230 0.0 1.0 0.00 0.01 0.01 92 1018.6
20260503044319 44 230 0.0 1.0 0.00 0.01 0.01 92 1018.7
20260503043819 44 230 0.0 1.0 0.00 0.01 0.01 92 1018.7
20260503043313 45 230 0.0 1.0 0.00 0.01 0.01 92 1018.7
20260503042830 45 225 0.0 1.0 0.00 0.01 0.01 92 1018.7
20260503042345 45 225 0.0 0.0 0.00 0.01 0.01 93 1018.7
20260503041820 45 225 0.0 0.0 0.00 0.01 0.01 93 1018.7
20260503041317 44 225 0.0 1.0 0.00 0.01 0.01 92 1018.6
20260503040812 44 225 0.0 1.0 0.00 0.01 0.01 93 1018.5
20260503040329 44 225 0.0 0.0 0.00 0.01 0.01 93 1018.4
20260503035825 44 225 0.0 1.0 0.00 0.01 0.01 93 1018.5
20260503035324 44 225 0.0 1.0 0.00 0.01 0.01 93 1018.4
20260503034822 44 225 0.0 1.0 0.00 0.01 0.01 93 1018.4
20260503034338 44 225 0.0 1.0 0.00 0.01 0.01 93 1018.5
20260503033813 44 227 0.0 1.0 0.00 0.01 0.01 94 1018.5
20260503033330 44 232 0.0 1.0 0.00 0.01 0.01 94 1018.6
20260503032825 44 232 0.0 0.0 0.00 0.01 0.01 94 1018.5
20260503032322 44 232 0.0 0.0 0.00 0.01 0.01 93 1018.6
20260503031818 44 232 0.0 0.0 0.00 0.01 0.01 93 1018.4
20260503031318 44 232 0.0 0.0 0.00 0.01 0.01 92 1018.5
20260503030815 44 232 0.0 0.0 0.00 0.01 0.01 92 1018.4
20260503030331 44 232 0.0 0.0 0.00 0.01 0.01 91 1018.3
20260503025827 44 232 0.0 0.0 0.00 0.01 0.01 91 1018.3
20260503025323 44 232 0.0 0.0 0.00 0.01 0.01 90 1018.2
20260503024820 45 232 0.0 1.0 0.00 0.01 0.01 89 1018.2
20260503024316 45 232 0.0 1.0 0.00 0.01 0.01 88 1018.2
20260503023816 45 232 0.0 0.0 0.00 0.01 0.01 88 1018.1
20260503023312 46 232 0.0 0.0 0.00 0.01 0.01 88 1018.1
20260503022829 46 232 0.0 0.0 0.00 0.01 0.01 88 1018.2
20260503022325 46 232 0.0 0.0 0.00 0.01 0.01 87 1018.2
20260503021820 46 232 0.0 1.0 0.00 0.01 0.01 87 1018.3
20260503021337 47 232 0.0 1.0 0.00 0.01 0.01 86 1018.3
20260503020852 47 236 0.0 1.0 0.00 0.01 0.01 85 1018.4
20260503020328 47 235 0.0 1.0 0.00 0.01 0.01 84 1018.3
20260503015823 48 198 0.0 1.0 0.00 0.01 0.01 84 1018.2
20260503015324 48 198 0.0 1.0 0.00 0.01 0.01 83 1018.2
20260503014819 48 238 0.0 2.0 0.00 0.01 0.01 82 1018.4
20260503014316 48 248 1.0 2.0 0.00 0.01 0.01 82 1018.3
20260503013813 48 282 1.0 3.0 0.00 0.01 0.01 81 1018.3
20260503013329 49 241 1.0 3.0 0.00 0.01 0.01 80 1018.1
20260503012825 49 315 0.0 5.0 0.00 0.01 0.01 78 1017.9
20260503012342 50 290 2.0 5.0 0.00 0.01 0.01 77 1017.8
20260503011837 50 251 1.0 5.0 0.00 0.01 0.01 74 1017.7
20260503011332 51 246 1.0 3.0 0.00 0.01 0.01 73 1017.5
20260503010847 51 244 1.0 3.0 0.00 0.01 0.01 72 1017.4
20260503010321 51 259 1.0 4.0 0.00 0.01 0.01 70 1017.2
20260503005837 51 282 1.0 4.0 0.00 0.01 0.01 70 1017.1
20260503005312 51 313 0.0 5.0 0.00 0.01 0.01 70 1016.9
20260503004829 51 360 1.0 5.0 0.00 0.01 0.01 69 1016.9
20260503004325 51 355 0.0 3.0 0.00 0.01 0.01 68 1016.7
20260503003821 51 162 1.0 8.0 0.00 0.01 0.01 68 1016.5
20260503003318 52 360 2.0 8.0 0.00 0.01 0.01 68 1016.5
20260503002818 52 187 0.0 2.0 0.00 0.01 0.01 67 1016.5
20260503002334 52 117 0.0 0.0 0.00 0.01 0.01 66 1016.4
20260503001829 52 117 0.0 1.0 0.00 0.01 0.01 66 1016.3
20260503001326 52 117 0.0 1.0 0.00 0.01 0.01 66 1016.2
20260503000821 53 112 0.0 0.0 0.00 0.01 0.01 66 1016.2
20260503000319 53 112 0.0 0.0 0.00 0.01 0.01 65 1016.1
20260502235815 53 112 0.0 0.0 0.00 0.01 0.01 66 1016.1
20260502235316 53 112 0.0 0.0 0.00 0.01 0.01 65 1016.1
20260502234812 53 112 0.0 0.0 0.00 0.01 0.01 63 1016.0
20260502234328 53 112 0.0 0.0 0.00 0.01 0.01 60 1015.9
20260502233824 53 112 0.0 1.0 0.00 0.01 0.01 59 1015.8
20260502233321 54 112 0.0 1.0 0.00 0.01 0.01 59 1015.9
20260502232817 54 119 0.0 2.0 0.00 0.01 0.01 59 1015.7
20260502232332 55 107 1.0 2.0 0.00 0.01 0.01 57 1015.7
20260502231827 55 299 1.0 2.0 0.00 0.01 0.01 57 1015.8
20260502231325 55 38 1.0 3.0 0.00 0.01 0.01 57 1015.8
20260502230825 56 93 1.0 3.0 0.00 0.01 0.01 54 1015.8
20260502230321 56 106 1.0 3.0 0.00 0.01 0.01 55 1015.7
20260502225817 56 296 1.0 3.0 0.00 0.01 0.01 55 1015.7
20260502225313 56 327 1.0 5.0 0.00 0.01 0.01 56 1015.5
20260502224849 57 44 2.0 5.0 0.00 0.01 0.01 54 1015.5
20260502224344 57 40 0.0 3.0 0.00 0.01 0.01 53 1015.6
20260502223818 57 338 1.0 3.0 0.00 0.01 0.01 54 1015.6
20260502223354 57 211 1.0 3.0 0.00 0.01 0.01 55 1015.6
20260502222846 57 104 1.0 7.0 0.00 0.01 0.01 56 1015.5
20260502222322 57 164 2.0 6.0 0.00 0.01 0.01 55 1015.4
20260502221822 57 5 1.0 6.0 0.00 0.01 0.01 54 1015.5
20260502221318 58 331 2.0 4.0 0.00 0.01 0.01 54 1015.5
20260502220814 57 36 1.0 7.0 0.00 0.01 0.01 54 1015.6
20260502220331 57 320 1.0 7.0 0.00 0.01 0.01 54 1015.8
20260502215847 58 39 1.0 6.0 0.00 0.01 0.01 52 1015.5
20260502215323 58 206 1.0 5.0 0.00 0.01 0.01 51 1015.5